�N����,����,�~����,�C��,���x,�C��,����,���ϕ���,�ő�u�ԕ���,�ő厞����,���˗�,�I�_���x,�n�����x,�ő啗���N��,DTYPE
"20/08/18","00:10",0.0,26.4,82.5,1005.7,342.8,1.0,1.7,340.5,0.00,23.2,28.5,"00:09:08",1
"20/08/18","00:20",0.0,26.3,83.0,1005.7,338.9,1.3,2.0,344.7,0.00,23.2,28.4,"00:10:24",1
"20/08/18","00:30",0.0,26.3,83.4,1005.7,343.5,1.1,1.8,1.1,0.00,23.3,28.4,"00:25:20",1
"20/08/18","00:40",0.0,26.0,83.7,1006.2,329.2,0.7,2.0,338.8,0.00,23.1,28.2,"00:31:20",1
"20/08/18","00:50",0.0,25.7,84.0,1006.0,302.1,0.1,0.5,241.2,0.00,22.8,28.3,"00:46:40",1
"20/08/18","01:00",0.0,25.4,84.4,1005.7,313.0,0.2,0.6,310.5,0.00,22.6,28.1,"00:55:52",1
"20/08/18","01:10",0.0,25.2,84.7,1005.5,282.3,0.2,0.5,296.4,0.00,22.5,28.2,"01:07:04",1
"20/08/18","01:20",0.0,25.1,85.0,1005.7,313.8,0.5,0.9,311.4,0.00,22.4,28.2,"01:17:04",1
"20/08/18","01:30",0.0,25.0,85.3,1005.5,323.6,0.2,0.6,338.2,0.00,22.4,27.9,"01:21:20",1
"20/08/18","01:40",0.0,25.1,85.4,1005.5,319.7,0.1,0.5,114.6,0.00,22.5,27.9,"01:34:00",1
"20/08/18","01:50",0.0,24.9,85.6,1005.5,289.7,0.3,0.6,311.0,0.00,22.4,27.9,"01:46:16",1
"20/08/18","02:00",0.0,24.9,86.0,1005.5,293.8,0.7,1.0,320.8,0.00,22.4,27.9,"01:50:40",1
"20/08/18","02:10",0.0,25.1,86.5,1005.7,285.6,0.7,1.3,307.1,0.00,22.7,27.7,"02:06:00",1
"20/08/18","02:20",0.0,24.9,86.6,1005.7,301.9,0.3,1.0,327.8,0.00,22.6,27.6,"02:15:52",1
"20/08/18","02:30",0.0,24.7,86.8,1005.5,311.2,0.3,1.0,334.5,0.00,22.4,27.7,"02:25:20",1
"20/08/18","02:40",0.0,24.8,87.1,1005.5,319.3,0.6,1.1,340.8,0.00,22.5,27.5,"02:39:28",1
"20/08/18","02:50",0.0,24.8,87.3,1005.7,301.5,0.6,1.4,318.3,0.00,22.6,27.3,"02:41:04",1
"20/08/18","03:00",0.0,24.8,87.5,1005.5,330.8,0.7,1.3,335.8,0.00,22.6,27.3,"02:50:40",1
"20/08/18","03:10",0.0,24.9,87.7,1005.5,304.0,0.7,1.9,309.8,0.00,22.8,27.4,"03:06:40",1
"20/08/18","03:20",0.0,25.1,87.7,1005.5,317.3,1.1,2.6,334.0,0.00,23.0,27.5,"03:16:32",1
"20/08/18","03:30",0.0,25.2,87.3,1005.0,329.3,1.5,2.5,353.1,0.00,23.0,27.1,"03:26:08",1
"20/08/18","03:40",0.0,25.4,86.7,1005.2,313.4,1.0,1.4,290.5,0.00,23.1,27.3,"03:31:44",1
"20/08/18","03:50",0.0,25.3,86.4,1005.0,325.3,0.8,1.7,316.8,0.00,22.9,27.3,"03:42:48",1
"20/08/18","04:00",0.0,25.2,86.1,1005.7,303.1,0.8,1.6,329.3,0.00,22.7,27.3,"03:57:36",1
"20/08/18","04:10",0.0,25.1,86.0,1005.2,318.1,1.0,1.7,344.0,0.00,22.6,27.1,"04:03:52",1
"20/08/18","04:20",0.0,25.1,85.8,1005.5,320.6,1.0,2.1,325.9,0.00,22.6,27.1,"04:16:24",1
"20/08/18","04:30",0.0,25.2,85.5,1005.5,328.9,1.2,2.4,338.2,0.00,22.6,27.2,"04:29:28",1
"20/08/18","04:40",0.0,25.3,85.0,1006.0,331.6,1.3,2.2,319.6,0.00,22.6,26.9,"04:33:12",1
"20/08/18","04:50",0.0,25.4,84.4,1005.7,325.0,1.2,2.1,332.6,0.00,22.6,26.8,"04:45:52",1
"20/08/18","05:00",0.0,25.6,83.7,1005.7,328.8,1.1,1.9,341.5,0.00,22.7,27.0,"04:54:40",1
"20/08/18","05:10",0.0,25.5,83.2,1006.0,350.8,0.7,1.4,343.0,0.00,22.5,27.0,"05:04:00",1
"20/08/18","05:20",0.0,25.3,83.2,1006.0,336.6,0.6,1.4,339.5,0.00,22.3,27.1,"05:10:24",1
"20/08/18","05:30",0.0,25.1,83.5,1006.2,324.4,0.5,1.1,336.6,0.00,22.1,26.8,"05:20:08",1
"20/08/18","05:40",0.0,24.9,83.8,1006.2,300.8,0.2,1.1,340.9,0.00,22.0,26.9,"05:30:02",1
"20/08/18","05:50",0.0,25.0,84.7,1006.4,318.6,0.8,1.4,340.8,0.00,22.3,26.7,"05:42:16",1
"20/08/18","06:00",0.0,24.9,85.1,1006.7,309.1,0.6,1.3,356.5,0.00,22.3,26.7,"05:55:04",1
"20/08/18","06:10",0.0,25.2,85.6,1006.9,307.7,0.6,1.2,335.6,0.00,22.7,26.7,"06:01:20",1
"20/08/18","06:20",0.0,25.7,85.8,1006.4,313.5,0.6,1.3,338.6,0.01,23.2,26.9,"06:15:12",1
"20/08/18","06:30",0.0,26.0,85.7,1006.7,332.1,0.8,1.4,328.4,0.02,23.5,26.7,"06:24:16",1
"20/08/18","06:40",0.0,26.4,85.3,1006.9,291.7,0.5,1.2,326.7,0.03,23.8,26.8,"06:30:48",1
"20/08/18","06:50",0.0,26.9,84.6,1006.7,325.2,0.5,1.4,330.5,0.04,24.1,26.9,"06:47:20",1
"20/08/18","07:00",0.0,27.1,83.3,1006.9,333.7,0.7,1.6,331.2,0.04,24.1,26.9,"06:54:24",1
"20/08/18","07:10",0.0,27.3,82.9,1006.4,359.0,0.7,1.9,3.3,0.05,24.2,27.0,"07:04:56",1
"20/08/18","07:20",0.0,27.3,82.4,1006.9,337.9,1.0,1.8,334.0,0.06,24.1,26.9,"07:10:56",1
"20/08/18","07:30",0.0,27.5,81.3,1006.7,341.7,1.3,2.6,348.3,0.11,24.0,27.1,"07:28:00",1
"20/08/18","07:40",0.0,27.9,79.7,1006.2,333.0,1.2,2.8,339.7,0.11,24.1,27.2,"07:35:52",1
"20/08/18","07:50",0.0,29.1,77.8,1005.7,298.8,0.8,2.2,336.0,0.21,24.9,27.2,"07:41:28",1
"20/08/18","08:00",0.0,29.6,74.5,1006.0,248.7,0.7,2.1,226.8,0.20,24.6,27.7,"07:52:00",1
"20/08/18","08:10",0.0,30.0,72.1,1006.9,339.3,0.7,2.2,348.3,0.16,24.5,27.6,"08:08:56",1
"20/08/18","08:20",0.0,30.5,70.4,1006.7,357.9,1.1,2.5,26.3,0.28,24.5,27.9,"08:13:28",1
"20/08/18","08:30",0.0,31.1,67.6,1006.9,29.3,1.2,4.7,350.7,0.31,24.4,28.1,"08:29:54",1
"20/08/18","08:40",0.0,31.3,67.6,1007.1,293.6,1.1,3.4,335.0,0.33,24.6,28.2,"08:30:08",1
"20/08/18","08:50",0.0,31.5,65.9,1007.6,313.3,1.1,2.9,354.6,0.37,24.4,28.6,"08:46:56",1
"20/08/18","09:00",0.0,31.7,65.1,1008.3,342.2,1.2,2.9,356.2,0.39,24.4,28.8,"08:51:52",1
"20/08/18","09:10",0.0,32.4,63.4,1007.8,325.5,1.2,4.1,346.4,0.42,24.6,29.1,"09:00:02",1
"20/08/18","09:20",0.0,32.7,61.6,1007.8,314.5,1.1,3.4,0.5,0.42,24.4,29.4,"09:10:56",1
"20/08/18","09:30",0.0,32.4,60.5,1008.1,341.3,1.6,4.3,348.2,0.49,23.8,29.6,"09:27:12",1
"20/08/18","09:40",0.0,32.9,60.6,1008.1,334.0,1.2,4.1,356.2,0.43,24.3,30.0,"09:35:20",1
"20/08/18","09:50",0.0,33.9,58.1,1008.6,150.3,0.5,2.1,94.2,0.48,24.5,30.2,"09:47:12",1
"20/08/18","10:00",0.0,32.7,58.7,1008.3,328.4,1.2,3.1,352.5,0.19,23.6,30.2,"09:58:32",1
"20/08/18","10:10",0.0,31.0,63.5,1007.6,337.1,2.3,5.4,347.8,0.19,23.3,30.6,"10:02:40",1
"20/08/18","10:20",0.0,31.8,62.2,1007.6,329.3,1.3,3.6,353.0,0.35,23.7,30.3,"10:16:08",1
"20/08/18","10:30",0.0,32.6,60.0,1007.6,359.0,1.2,3.2,340.8,0.40,23.9,30.7,"10:26:00",1
"20/08/18","10:40",0.0,33.7,55.4,1008.1,19.6,1.1,3.4,347.9,0.47,23.6,30.8,"10:31:04",1
"20/08/18","10:50",0.0,33.6,57.5,1008.1,4.1,1.5,3.9,353.3,0.43,24.1,30.9,"10:43:20",1
"20/08/18","11:00",0.0,33.7,56.4,1007.6,9.3,1.2,3.1,5.4,0.49,23.9,31.3,"10:58:08",1
"20/08/18","11:10",0.0,34.2,55.3,1007.6,0.7,1.5,3.5,2.7,0.56,24.0,31.7,"11:01:28",1
"20/08/18","11:20",0.0,34.6,52.1,1007.8,22.8,1.2,3.3,56.9,0.55,23.4,31.8,"11:19:52",1
"20/08/18","11:30",0.0,33.9,54.5,1007.8,10.1,1.3,3.4,347.9,0.35,23.5,31.8,"11:22:00",1
"20/08/18","11:40",0.0,33.8,54.2,1007.6,3.6,1.5,3.5,348.0,0.48,23.3,32.1,"11:31:20",1
"20/08/18","11:50",0.0,33.8,52.9,1007.6,337.2,1.7,4.2,347.6,0.52,22.9,32.3,"11:44:00",1
"20/08/18","12:00",0.0,35.0,51.9,1007.8,330.6,1.0,2.5,89.3,0.53,23.7,32.7,"11:59:52",1
"20/08/18","12:10",0.0,35.1,51.7,1007.6,7.7,1.5,3.2,61.5,0.52,23.7,32.9,"12:05:44",1
"20/08/18","12:20",0.0,34.9,51.1,1007.6,15.8,1.7,3.1,43.5,0.55,23.3,33.1,"12:13:20",1
"20/08/18","12:30",0.0,34.7,53.1,1007.4,349.3,2.1,4.7,349.2,0.57,23.8,33.1,"12:24:56",1
"20/08/18","12:40",0.0,35.2,50.1,1007.6,14.9,1.5,4.4,351.6,0.57,23.3,33.3,"12:30:16",1
"20/08/18","12:50",0.0,35.8,49.2,1007.6,307.3,1.2,4.5,343.4,0.56,23.5,33.7,"12:43:20",1
"20/08/18","13:00",0.0,35.4,51.1,1007.4,348.2,1.5,5.0,217.2,0.50,23.8,33.7,"12:51:04",1
"20/08/18","13:10",0.0,35.6,49.1,1007.4,356.7,1.2,2.7,76.5,0.47,23.3,33.9,"13:03:36",1
"20/08/18","13:20",0.0,34.2,51.3,1007.1,351.7,2.2,4.8,359.1,0.34,22.8,33.7,"13:19:52",1
"20/08/18","13:30",0.0,33.7,52.9,1006.7,353.0,2.0,4.8,340.2,0.29,22.8,33.9,"13:27:52",1
"20/08/18","13:40",0.0,34.1,53.5,1006.2,0.8,2.0,5.4,334.9,0.42,23.4,33.8,"13:32:00",1
"20/08/18","13:50",0.0,34.8,49.7,1006.7,303.2,1.5,4.0,350.1,0.50,22.8,33.8,"13:40:24",1
"20/08/18","14:00",0.0,35.3,50.4,1006.7,2.5,1.6,2.9,344.9,0.47,23.5,34.0,"13:57:52",1
"20/08/18","14:10",0.0,35.5,49.0,1006.4,325.4,1.6,4.4,343.2,0.47,23.2,33.8,"14:04:48",1
"20/08/18","14:20",0.0,35.5,46.8,1006.7,311.4,1.5,3.3,345.9,0.48,22.4,34.0,"14:10:56",1
"20/08/18","14:30",0.0,35.4,46.6,1006.4,4.9,1.8,4.7,339.2,0.45,22.3,33.9,"14:20:16",1
"20/08/18","14:40",0.0,35.3,48.8,1006.4,332.9,2.1,5.4,328.4,0.43,22.9,33.9,"14:36:00",1
"20/08/18","14:50",0.0,35.2,50.4,1006.0,348.9,2.2,4.8,344.5,0.41,23.4,34.0,"14:45:20",1
"20/08/18","15:00",0.0,35.4,48.6,1006.2,336.7,1.7,4.4,351.8,0.41,23.0,34.0,"14:51:20",1
"20/08/18","15:10",0.0,35.8,45.6,1006.0,15.7,1.6,4.4,327.6,0.40,22.3,34.0,"15:01:52",1
"20/08/18","15:20",0.0,35.2,45.4,1005.7,352.6,2.3,6.0,344.8,0.37,21.7,34.0,"15:16:40",1
"20/08/18","15:30",0.0,35.1,45.8,1006.0,334.8,2.0,5.0,350.4,0.35,21.7,33.9,"15:27:36",1
"20/08/18","15:40",0.0,35.7,45.1,1005.7,353.2,1.5,3.4,12.1,0.33,22.0,33.9,"15:30:02",1
"20/08/18","15:50",0.0,35.2,44.6,1005.5,337.3,2.0,4.7,339.6,0.30,21.4,34.0,"15:46:08",1
"20/08/18","16:00",0.0,35.3,47.1,1005.5,342.5,1.5,3.7,318.5,0.28,22.3,34.0,"15:53:12",1
"20/08/18","16:10",0.0,34.8,47.3,1005.2,341.7,2.0,5.2,342.6,0.26,22.0,33.7,"16:07:04",1
"20/08/18","16:20",0.0,34.6,46.0,1005.2,353.2,2.0,4.8,346.9,0.23,21.3,33.7,"16:14:40",1
"20/08/18","16:30",0.0,34.2,47.1,1005.5,353.5,2.0,3.7,326.4,0.21,21.4,33.4,"16:23:12",1
"20/08/18","16:40",0.0,34.4,47.9,1004.8,348.9,1.6,3.6,350.2,0.18,21.8,33.2,"16:34:40",1
"20/08/18","16:50",0.0,33.9,48.8,1005.0,352.7,2.1,4.8,340.6,0.16,21.7,33.0,"16:43:04",1
"20/08/18","17:00",0.0,33.6,49.1,1004.5,347.9,2.0,4.1,349.7,0.14,21.5,33.0,"16:58:16",1
"20/08/18","17:10",0.0,33.1,50.3,1005.0,348.3,2.3,4.2,340.0,0.11,21.4,32.8,"17:06:16",1
"20/08/18","17:20",0.0,32.8,51.8,1004.3,350.6,1.8,4.1,350.6,0.09,21.6,32.6,"17:16:00",1
"20/08/18","17:30",0.0,32.5,51.9,1004.8,349.5,2.1,4.3,347.9,0.07,21.4,32.6,"17:25:12",1
"20/08/18","17:40",0.0,32.4,53.2,1004.3,345.4,1.7,3.5,335.7,0.05,21.7,32.2,"17:32:32",1
"20/08/18","17:50",0.0,31.8,55.1,1004.1,353.6,1.8,3.4,337.9,0.03,21.7,32.2,"17:44:24",1
"20/08/18","18:00",0.0,31.3,57.3,1003.4,356.4,1.2,2.4,26.9,0.00,21.9,32.0,"17:53:04",1
"20/08/18","18:10",0.0,30.7,59.2,1004.1,347.0,1.3,2.9,3.7,0.00,21.9,31.9,"18:06:48",1
"20/08/18","18:20",0.0,30.3,60.7,1003.4,352.8,1.1,2.5,342.1,0.00,21.9,31.6,"18:16:16",1
"20/08/18","18:30",0.0,29.8,61.5,1003.1,336.6,1.5,3.1,347.2,0.00,21.6,31.6,"18:29:04",1
"20/08/18","18:40",0.0,29.6,62.0,1003.1,318.2,1.3,3.3,342.7,0.00,21.6,31.2,"18:36:56",1
"20/08/18","18:50",0.0,29.3,62.5,1003.1,322.0,1.5,3.2,346.1,0.00,21.4,31.1,"18:49:52",1
"20/08/18","19:00",0.0,29.0,63.2,1003.1,324.0,1.7,3.6,319.1,0.00,21.3,31.1,"18:58:00",1
"20/08/18","19:10",0.0,28.8,64.2,1003.8,337.7,2.1,5.0,344.1,0.00,21.4,30.8,"19:09:36",1
"20/08/18","19:20",0.0,28.5,65.3,1003.8,336.3,2.5,4.8,334.0,0.00,21.4,30.8,"19:12:24",1
"20/08/18","19:30",0.0,28.4,65.9,1003.6,332.9,2.7,5.2,340.7,0.00,21.5,30.4,"19:26:40",1
"20/08/18","19:40",0.0,28.1,66.8,1004.1,340.3,2.3,4.7,335.5,0.00,21.4,30.3,"19:37:44",1
"20/08/18","19:50",0.0,27.8,68.0,1003.8,342.1,2.0,3.6,352.2,0.00,21.4,30.3,"19:49:20",1
"20/08/18","20:00",0.0,27.5,69.5,1004.1,339.6,1.7,3.4,345.6,0.00,21.5,30.2,"19:52:40",1
"20/08/18","20:10",0.0,27.3,70.8,1004.3,340.5,1.6,3.1,333.2,0.00,21.6,30.1,"20:08:48",1
"20/08/18","20:20",0.0,27.3,71.1,1004.8,343.7,2.0,3.5,345.4,0.00,21.6,29.7,"20:12:16",1
"20/08/18","20:30",0.0,27.3,71.2,1004.1,346.3,1.7,3.3,11.2,0.00,21.7,29.6,"20:24:40",1
"20/08/18","20:40",0.0,27.1,71.7,1004.1,337.7,1.8,3.3,335.4,0.00,21.6,29.5,"20:35:04",1
"20/08/18","20:50",0.0,26.7,73.0,1004.5,336.8,1.1,2.2,351.3,0.00,21.5,29.4,"20:43:04",1
"20/08/18","21:00",0.0,26.3,74.3,1004.5,315.8,0.8,1.4,349.2,0.00,21.4,29.4,"20:52:48",1
"20/08/18","21:10",0.0,26.1,74.9,1004.5,285.7,1.0,2.7,337.1,0.00,21.3,29.2,"21:02:00",1
"20/08/18","21:20",0.0,26.3,74.9,1004.3,329.6,1.8,4.0,341.1,0.00,21.5,29.1,"21:18:24",1
"20/08/18","21:30",0.0,26.4,74.7,1004.5,336.6,2.0,4.3,337.7,0.00,21.6,28.8,"21:20:32",1
"20/08/18","21:40",0.0,26.3,75.0,1004.3,331.8,1.7,2.9,334.8,0.00,21.6,28.9,"21:36:00",1
"20/08/18","21:50",0.0,26.2,75.6,1004.5,337.4,1.8,3.4,348.7,0.00,21.6,28.6,"21:49:20",1
"20/08/18","22:00",0.0,25.9,76.6,1004.5,344.3,1.6,2.9,336.8,0.00,21.5,28.6,"21:53:04",1
"20/08/18","22:10",0.0,25.7,77.6,1004.8,339.6,1.7,2.7,346.6,0.00,21.5,28.7,"22:05:12",1
"20/08/18","22:20",0.0,25.5,78.7,1005.0,340.3,1.8,3.3,340.5,0.00,21.6,28.4,"22:13:44",1
"20/08/18","22:30",0.0,25.7,78.9,1005.0,339.8,2.3,4.7,345.2,0.00,21.8,28.5,"22:26:24",1
"20/08/18","22:40",0.0,25.7,79.0,1004.8,336.5,2.0,3.2,325.8,0.00,21.8,28.2,"22:31:20",1
"20/08/18","22:50",0.0,25.5,79.3,1005.0,334.4,1.5,2.8,322.7,0.00,21.7,28.2,"22:41:52",1
"20/08/18","23:00",0.0,25.3,79.8,1005.0,340.9,1.6,2.4,25.6,0.00,21.6,28.0,"22:55:20",1
"20/08/18","23:10",0.0,25.2,80.1,1005.0,347.7,2.0,3.6,345.9,0.00,21.6,28.0,"23:04:56",1
"20/08/18","23:20",0.0,25.2,80.1,1005.0,331.0,2.0,3.4,343.6,0.00,21.6,27.8,"23:12:00",1
"20/08/18","23:30",0.0,25.1,79.8,1005.2,330.2,2.1,4.4,347.7,0.00,21.4,27.9,"23:20:24",1
"20/08/18","23:40",0.0,25.1,79.6,1005.0,335.4,2.2,3.7,338.5,0.00,21.4,27.7,"23:30:32",1
"20/08/18","23:50",0.0,25.1,79.6,1005.0,332.3,2.1,3.4,346.0,0.00,21.4,27.8,"23:40:08",1
"20/08/18","24:00",0.0,25.0,79.6,1005.2,331.3,1.5,3.6,344.6,0.00,21.3,27.6,"23:50:24",1
